Location: Finkenbach
(49.5340°N, 8.9188°E)
Time: 05:43:54
(UTC+00:00)

ATLAS 2AS CENTAUR R/B - Pass Details

Date: 17 June 2025
Orbit: 1040 x 1170 km, 63.7° (Epoch: 12 July)

Event Time Altitude Azimuth Distance (km) Brightness Sun altitude
Exits shadow 22:59:50 21° 199° (SSW) 2,280 3.9 -16.8°
Maximum altitude 23:04:44 64° 125° (SE) 1,217 2.8 -16.9°
Drops below altitude 10° 23:11:35 10° 46° (NE) 2,924 5.6 -17.0°
Sets 23:14:13 0° 43° (NE) 3,866 6.3 -17.0°
